[[{"header":{"parameterUnit":"m.s-1","parameterCategory":1,"la1":30.2991,"la2":30.254,"lo1":-89.0895,"lo2":-89.0444,"dy":0.0017,"dx":0.0017,"nx":28,"ny":28,"refTime":"2025-09-12T03:00:00:Z","depth":0,"parameterNumber":2,"parameterNumberName":"U-component_of_WINDS"},"data":[0,0,0,0,0,0,0,0,0,0,0,0,0,0,0,0,0,0,0,0,0,0,0,0,0,0,0,0,0,0,0,0,0,0,0,0,0,0,0,0,0,0,0,0,0,0,0,0,0,0,0,0,0,0,0,0,0,0,0.5386,0.5386,0,0.5375,0.5374,0.5374,0.5337,0.5337,0.5336,0.5335,0.5324,0.5325,0.5325,0,0,0,0,0,0,0,0,0,0,0,0,0,0.5376,0.5377,0.5386,0.5386,0.5386,0.5375,0.5374,0.5374,0.5337,0.5336,0.5335,0.5335,0.5324,0.5325,0.5325,0,0,0,0,0,0,0,0,0,0,0,0,0,0.5374,0.5377,0.5386,0.5366,0.5364,0.5375,0.5374,0.5374,0.5338,0.5336,0.5335,0.5334,0.5324,0.5325,0.5326,0.5355,0,0,0.5328,0.5328,0,0,0,0,0,0,0,0,0.5375,0.5375,0.5369,0.5367,0.5365,0.5356,0.5367,0.5368,0.5338,0.5348,0.5335,0.5333,0.5336,0.5336,0.5336,0.5354,0.5354,0.5328,0.5328,0.5329,0.5329,0,0,0,0,0,0,0,0.5375,0.5375,0.5382,0.5369,0.5367,0.5358,0.5356,0.5367,0.5349,0.5347,0.5344,0.5343,0.5335,0.5336,0.5336,0.5354,0.5328,0.5328,0.5329,0.5329,0.5394,0.5395,0,0,0,0,0,0,0.5378,0.5376,0.5382,0.5381,0.5367,0.5359,0.5357,0.536,0.5349,0.5346,0.5344,0.5342,0.5335,0.5335,0.5335,0.5368,0.5329,0.5329,0.533,0.5393,0.5394,0.5396,0,0,0,0,0,0,0.5378,0.5379,0.5382,0.5378,0.5377,0.536,0.5364,0.5361,0.5362,0.5347,0.5344,0.5349,0.5334,0.5334,0.535,0.5367,0.533,0.533,0.5391,0.5393,0.5395,0.5435,0,0,0,0,0,0,0.5378,0.5379,0.539,0.5378,0.5378,0.5397,0.5365,0.5361,0.5363,0.5359,0.535,0.5347,0.5333,0.5349,0.5351,0.5368,0.5331,0.539,0.5392,0.5394,0.5432,0.5438,0.5443,0,0,0,0,0,0.5377,0.5402,0.5391,0.5392,0.5391,0.5399,0.5398,0.5381,0.5364,0.5375,0.5366,0.5348,0.5365,0.5351,0.5352,0.537,0.5388,0.5391,0.5394,0.5429,0.5437,0.5443,0,0,0,0,0,0,0.5418,0.54,0.5387,0.5409,0.5405,0.5392,0.5406,0.539,0.5391,0.5388,0.5366,0.5365,0.5383,0.5378,0.5363,0.5397,0.5374,0.5377,0.54,0.5407,0.5412,0.5413,0.5331,0,0,0,0,0,0.5429,0.5436,0.542,0.5441,0.544,0.5423,0.5426,0.5412,0.5408,0.5406,0.5398,0.5394,0.5399,0.5402,0.5406,0.5431,0.5428,0.5443,0.5449,0.5454,0.5457,0.5469,0.5475,0.5405,0.5405,0.5405,0,0,0.5452,0.5444,0.545,0.5449,0.5445,0.5452,0.5422,0.5432,0.5437,0.5408,0.5422,0.5416,0.541,0.543,0.5439,0.5427,0.5475,0.5457,0.5461,0.5462,0.5472,0.5479,0.5485,0.5407,0.5407,0.5406,0,0,0.5499,0.5494,0.551,0.5506,0.5499,0.5487,0.5491,0.548,0.5474,0.5488,0.5465,0.5472,0.548,0.5477,0.5476,0.552,0.5504,0.5522,0.5551,0.5563,0.5568,0.5573,0.5589,0.5594,0.5525,0.5525,0.5525,0,0.553,0.554,0.552,0.5531,0.5531,0.5504,0.552,0.5517,0.5512,0.5513,0.5499,0.5508,0.5502,0.5521,0.5531,0.5532,0.5536,0.5523,0.5569,0.5574,0.5578,0.5592,0.5598,0.5528,0.5527,0.5527,0.5527,0,0.5578,0.5585,0.5599,0.5594,0.5595,0.5609,0.5591,0.5595,0.5581,0.5571,0.5584,0.5577,0.5577,0.5581,0.5568,0.5597,0.559,0.5573,0.5549,0.5587,0.56,0.5606,0.5531,0.553,0.5529,0.5529,0,0,0.5651,0.5633,0.5639,0.5636,0.5625,0.5631,0.5643,0.5643,0.5646,0.5643,0.5653,0.5659,0.5643,0.5643,0.5629,0.5639,0.5674,0.5621,0.5621,0.5631,0.5705,0.5718,0.5724,0.5662,0.5663,0.5664,0.5705,0,0.5696,0.5714,0.5696,0.5718,0.5725,0.5698,0.5708,0.5703,0.5693,0.5697,0.5686,0.5692,0.567,0.5669,0.5678,0.5668,0.5688,0.5665,0.5671,0.5671,0.5673,0.5731,0.5745,0.5784,0.571,0.5711,0.5712,0,0.575,0.5749,0.5772,0.5758,0.576,0.577,0.5768,0.5772,0.5765,0.5757,0.5756,0.5739,0.5749,0.5725,0.5738,0.5723,0.5724,0.5719,0.572,0.572,0.5694,0.5733,0.5796,0.5802,0.5719,0.5719,0.5718,0,0.5801,0.5805,0.5818,0.5817,0.5802,0.5809,0.5803,0.5795,0.5796,0.5794,0.5794,0.5794,0.5794,0.5794,0.5777,0.5761,0.5792,0.5767,0.5786,0.5786,0.5794,0.5794,0.5859,0.5795,0.5795,0.5795,0.5794,0,0.5853,0.5868,0.5841,0.585,0.5865,0.5844,0.586,0.5851,0.5844,0.585,0.5827,0.5834,0.5811,0.5814,0.5801,0.5814,0.5814,0.5808,0.5805,0.581,0.5811,0.5811,0.5808,0.5796,0.5796,0.5795,0.5795,0,0.5912,0.5895,0.5908,0.5893,0.5889,0.5901,0.5888,0.5895,0.5883,0.5891,0.5892,0.5874,0.5877,0.586,0.586,0.5851,0.5871,0.5862,0.5873,0.587,0.589,0.5888,0.5957,0.5965,0.5896,0.5897,0.5897,0,0.5947,0.5957,0.5942,0.5944,0.594,0.5944,0.5944,0.5923,0.5924,0.5916,0.5924,0.5925,0.5925,0.5931,0.5918,0.5918,0.5909,0.5933,0.5909,0.5914,0.5909,0.5909,0.591,0.5939,0.5939,0.594,0.5941,0,0.6009,0.6,0.6001,0.5998,0.5999,0.5996,0.5992,0.5996,0.5972,0.5975,0.5977,0.5977,0.5977,0.5978,0.5975,0.5969,0.5951,0.5948,0.5952,0.5959,0.5964,0.5961,0.5887,0.5947,0.5946,0.5946,0.5945,0.5945,0.6057,0.6065,0.6055,0.6057,0.6051,0.6047,0.6053,0.6041,0.6043,0.604,0.6027,0.6032,0.6024,0.6018,0.6013,0.6016,0.6005,0.6011,0.6013,0.6015,0.6018,0.5963,0.6016,0.6015,0.6015,0.6015,0.6015,0,0.6118,0.611,0.6112,0.6106,0.6107,0.6089,0.6083,0.6085,0.6089,0.6083,0.6083,0.6085,0.6086,0.6072,0.6071,0.6076,0.6068,0.6076,0.6076,0.6075,0.6029,0.6025,0.6083,0.6083,0.6083,0.6083,0.6083,0.6083,0.615,0.6162,0.6151,0.616,0.6151,0.6155,0.6153,0.615,0.6144,0.6148,0.6148,0.6138,0.6129,0.6126,0.6126,0.6122,0.6122,0.6134,0.6127,0.6084,0.6078,0.6072,0.6068,0.6134,0.6134,0.6172,0.6173,0.6173]},{"header":{"parameterUnit":"m.s-1","parameterCategory":1,"la1":30.2991,"la2":30.254,"lo1":-89.0895,"lo2":-89.0444,"dy":0.0017,"dx":0.0017,"nx":28,"ny":28,"refTime":"2025-09-12T03:00:00:Z","depth":0,"parameterNumber":3,"parameterNumberName":"V-component_of_WINDS"},"data":[0,0,0,0,0,0,0,0,0,0,0,0,0,0,0,0,0,0,0,0,0,0,0,0,0,0,0,0,0,0,0,0,0,0,0,0,0,0,0,0,0,0,0,0,0,0,0,0,0,0,0,0,0,0,0,0,0,0,-1.2526,-1.2527,0,-1.2676,-1.2678,-1.268,-1.2762,-1.2762,-1.2762,-1.2763,-1.2923,-1.2927,-1.2931,0,0,0,0,0,0,0,0,0,0,0,0,0,-1.2315,-1.2318,-1.2525,-1.2527,-1.2529,-1.2676,-1.2678,-1.268,-1.2762,-1.2762,-1.2763,-1.2763,-1.2922,-1.2926,-1.2931,0,0,0,0,0,0,0,0,0,0,0,0,0,-1.243,-1.232,-1.2525,-1.2588,-1.2595,-1.2676,-1.2678,-1.2681,-1.2762,-1.2762,-1.2763,-1.2763,-1.292,-1.2926,-1.2932,-1.2964,0,0,-1.2951,-1.2953,0,0,0,0,0,0,0,0,-1.2424,-1.2438,-1.2576,-1.2583,-1.2591,-1.2701,-1.2663,-1.2776,-1.2762,-1.2699,-1.2763,-1.2763,-1.2849,-1.2861,-1.2889,-1.2972,-1.2979,-1.2951,-1.2955,-1.2958,-1.2959,0,0,0,0,0,0,0,-1.2416,-1.2432,-1.2585,-1.2578,-1.2588,-1.261,-1.2627,-1.2685,-1.2771,-1.2704,-1.271,-1.2727,-1.2853,-1.2883,-1.2893,-1.2981,-1.2951,-1.2956,-1.296,-1.2963,-1.3101,-1.3101,0,0,0,0,0,0,-1.2397,-1.2425,-1.2581,-1.259,-1.2506,-1.2614,-1.2633,-1.2665,-1.277,-1.2786,-1.2727,-1.273,-1.2872,-1.2886,-1.2899,-1.2945,-1.2958,-1.2963,-1.2967,-1.3101,-1.3101,-1.3101,0,0,0,0,0,0,-1.2392,-1.241,-1.2574,-1.2509,-1.2532,-1.2617,-1.2653,-1.2668,-1.2698,-1.2787,-1.2803,-1.274,-1.2873,-1.2891,-1.2948,-1.2952,-1.2966,-1.2972,-1.3101,-1.3101,-1.3101,-1.3036,0,0,0,0,0,0,-1.2385,-1.2407,-1.2419,-1.2509,-1.2535,-1.2618,-1.2654,-1.2671,-1.2707,-1.2714,-1.2804,-1.282,-1.2875,-1.2938,-1.2954,-1.2961,-1.2976,-1.3101,-1.3101,-1.3101,-1.3038,-1.3034,-1.303,0,0,0,0,0,-1.2378,-1.2395,-1.2419,-1.2437,-1.255,-1.2618,-1.2633,-1.2694,-1.2707,-1.2721,-1.2779,-1.2817,-1.2949,-1.2943,-1.2961,-1.297,-1.3101,-1.3101,-1.3101,-1.304,-1.3035,-1.303,0,0,0,0,0,0,-1.2305,-1.2408,-1.2435,-1.2482,-1.254,-1.2631,-1.265,-1.2686,-1.2743,-1.2747,-1.2822,-1.2842,-1.2892,-1.2938,-1.2929,-1.3008,-1.3029,-1.3033,-1.2977,-1.2972,-1.2968,-1.2957,-1.2981,0,0,0,0,0,-1.2294,-1.2338,-1.2427,-1.246,-1.2488,-1.2563,-1.2595,-1.2637,-1.2701,-1.2727,-1.2789,-1.2851,-1.2907,-1.2943,-1.2999,-1.3046,-1.3068,-1.3061,-1.3057,-1.3053,-1.3055,-1.3086,-1.3084,-1.31,-1.31,-1.31,0,0,-1.2273,-1.2335,-1.2358,-1.2447,-1.2497,-1.2543,-1.2584,-1.263,-1.2666,-1.2735,-1.2792,-1.284,-1.2915,-1.2967,-1.2993,-1.3006,-1.3056,-1.3053,-1.3049,-1.3054,-1.3085,-1.3084,-1.3082,-1.31,-1.31,-1.31,0,0,-1.2258,-1.2308,-1.2342,-1.2391,-1.2466,-1.2516,-1.2524,-1.2611,-1.2644,-1.2703,-1.2756,-1.2801,-1.2895,-1.2947,-1.2985,-1.2992,-1.303,-1.3008,-1.2987,-1.3015,-1.3014,-1.3013,-1.3017,-1.3017,-1.301,-1.301,-1.301,0,-1.2222,-1.2291,-1.2355,-1.2399,-1.2437,-1.25,-1.2536,-1.2582,-1.2672,-1.2698,-1.2711,-1.2831,-1.2886,-1.2953,-1.2954,-1.2983,-1.2997,-1.2998,-1.3009,-1.3009,-1.3009,-1.3013,-1.3014,-1.3007,-1.3007,-1.3008,-1.3008,0,-1.2245,-1.2292,-1.2311,-1.2394,-1.2435,-1.2475,-1.2547,-1.2581,-1.262,-1.267,-1.2731,-1.2799,-1.2871,-1.289,-1.2929,-1.2963,-1.2968,-1.2994,-1.3016,-1.3003,-1.3009,-1.3011,-1.3002,-1.3004,-1.3005,-1.3005,0,0,-1.2186,-1.2305,-1.2311,-1.2351,-1.2439,-1.2478,-1.2522,-1.2591,-1.262,-1.2681,-1.2721,-1.28,-1.2825,-1.2868,-1.2915,-1.2939,-1.2942,-1.2963,-1.2966,-1.2957,-1.2985,-1.2965,-1.2966,-1.2968,-1.2969,-1.2969,-1.2979,0,-1.2184,-1.2263,-1.2322,-1.238,-1.2426,-1.2488,-1.2527,-1.2586,-1.2635,-1.2683,-1.2739,-1.2793,-1.2821,-1.2848,-1.2876,-1.2935,-1.2949,-1.2936,-1.3008,-1.301,-1.2987,-1.2969,-1.2948,-1.2954,-1.2982,-1.2982,-1.2982,0,-1.2191,-1.2248,-1.2309,-1.2394,-1.2416,-1.2449,-1.2518,-1.2563,-1.2633,-1.2667,-1.2717,-1.2764,-1.2817,-1.2834,-1.2909,-1.2898,-1.2932,-1.2966,-1.2968,-1.2978,-1.2995,-1.2978,-1.2957,-1.2958,-1.2986,-1.2986,-1.2986,0,-1.2143,-1.2236,-1.2285,-1.2317,-1.2417,-1.2439,-1.2482,-1.2553,-1.2591,-1.2652,-1.2678,-1.2745,-1.2782,-1.2835,-1.29,-1.2907,-1.2969,-1.2992,-1.3,-1.2999,-1.301,-1.3008,-1.2994,-1.3031,-1.3031,-1.3031,-1.3031,0,-1.2134,-1.2169,-1.2265,-1.2295,-1.2337,-1.2407,-1.2448,-1.2497,-1.256,-1.2602,-1.2661,-1.2701,-1.2785,-1.2836,-1.2888,-1.2942,-1.2959,-1.2989,-1.3003,-1.2984,-1.298,-1.3007,-1.3009,-1.3031,-1.3031,-1.3031,-1.3031,0,-1.2087,-1.2152,-1.221,-1.23,-1.2324,-1.2351,-1.243,-1.2463,-1.2515,-1.2569,-1.2586,-1.2669,-1.2732,-1.2803,-1.289,-1.2925,-1.2977,-1.2996,-1.2952,-1.296,-1.2965,-1.2963,-1.2968,-1.2973,-1.3005,-1.3004,-1.3004,0,-1.2076,-1.2105,-1.2198,-1.223,-1.2271,-1.2322,-1.2361,-1.2432,-1.2471,-1.2554,-1.2578,-1.2645,-1.2702,-1.2801,-1.2871,-1.2938,-1.296,-1.2957,-1.2971,-1.2951,-1.2961,-1.2959,-1.2963,-1.2953,-1.2952,-1.2951,-1.2951,0,-1.2052,-1.2083,-1.2135,-1.22,-1.2245,-1.23,-1.2358,-1.2381,-1.2464,-1.2506,-1.257,-1.2614,-1.2703,-1.277,-1.2846,-1.2894,-1.2937,-1.2946,-1.2952,-1.2933,-1.2907,-1.2922,-1.2941,-1.2946,-1.2946,-1.2947,-1.2947,-1.2947,-1.2023,-1.2052,-1.2122,-1.218,-1.2231,-1.2283,-1.2319,-1.2376,-1.243,-1.2506,-1.2546,-1.261,-1.2683,-1.279,-1.2837,-1.289,-1.2904,-1.2912,-1.2914,-1.2915,-1.291,-1.2898,-1.2904,-1.2905,-1.2905,-1.2905,-1.2905,0,-1.2002,-1.205,-1.2103,-1.2181,-1.2227,-1.2262,-1.2328,-1.2365,-1.242,-1.2483,-1.2539,-1.2614,-1.268,-1.2755,-1.2826,-1.2854,-1.2876,-1.2871,-1.287,-1.288,-1.2893,-1.2881,-1.2852,-1.2852,-1.2852,-1.2852,-1.2852,-1.2852,-1.1996,-1.2047,-1.2087,-1.2165,-1.2214,-1.2275,-1.231,-1.2361,-1.2412,-1.2492,-1.2546,-1.2595,-1.2664,-1.2741,-1.2804,-1.2825,-1.2849,-1.2838,-1.2864,-1.2875,-1.2879,-1.2883,-1.2873,-1.2842,-1.2842,-1.2847,-1.2847,-1.2847]}]]